Miscellaneous Local Product
Issued by NWS North Platte, NE

Home | Current Version | Previous Version | Graphics & Text | Print | Product List | Glossary On
Versions: 1 2 3 4 5 6 7 8 9 10 11 12 13 14 15 16 17 18 19 20 21 22 23 24 25 26 27 28 29 30 31 32 33 34 35 36 37 38 39 40 41 42 43 44 45 46 47 48 49 50
920
AXUS43 KLBF 260210
MISLBF


WESTERN AND NORTH CENTRAL NEBRASKA HOURLY WEATHER ROUNDUP
NATIONAL WEATHER SERVICE NORTH PLATTE NE
900 PM CDT SUN SEP 25 2016

NOTE: "FAIR" INDICATES FEW OR NO CLOUDS BELOW 12,000 FEET WITH NO
SIGNIFICANT WEATHER AND/OR OBSTRUCTIONS TO VISIBILITY.

NOTE: STATIONS NOT REPORTING VARIABLES SUCH AS SKY/WEATHER OR
PRESSURE ARE PROVIDED BY RAWS AND APRS NETWORKS AND ARE NOT UNDER
NATIONAL WEATHER SERVICE QUALITY CONTROL.

...OBSERVATIONS IN AND NEAR THE EASTERN PANHANDLE OF NEBRASKA...

CITY           SKY/WX    TMP DP  RH WIND       PRES   REMARKS
PINE RIDGE     CLEAR     46  31  55 NE3       30.34R HAZE
CHADRON        CLEAR     54  31  41 NW5       30.34R
ALLIANCE       CLEAR     44  30  57 NE5       30.35R
SIDNEY         CLEAR     50  36  58 NE6       30.38S
CRESCENT LAKE    N/A     49  32  52 CALM        N/A
$$

...OBSERVATIONS IN NORTHERN NEBRASKA AND FAR SOUTHERN SOUTH DAKOTA...

CITY           SKY/WX    TMP DP  RH WIND       PRES   REMARKS
WINNER         FAIR      52  32  46 W7        30.25R
VALENTINE      CLEAR     47  28  47 W6        30.29S
THEDFORD       CLEAR     53  31  42 N6        30.33R
AINSWORTH      CLEAR     51  31  46 W5        30.29S
O`NEILL        CLEAR     53  31  43 W8        30.26R
ORD            CLEAR     50  33  52 NW8       30.27R
BROKEN BOW     CLEAR     50  26  39 NW8       30.31R
VALENTINE NWR    N/A     49  31  51 NW5G13      N/A
BUTTE            N/A     53  32  45 W3          N/A
HALSEY           N/A     54  26  33 NW3G13      N/A
EWING            N/A     53  38  56 CALM        N/A
$$

...OBSERVATIONS IN SOUTHWEST NEBRASKA AND FAR NORTHEAST COLORADO...

CITY           SKY/WX    TMP DP  RH WIND       PRES   REMARKS
WRAY           FAIR      50  32  50 N7        30.37
HOLYOKE        FAIR      54  36  50 CALM      30.37R
IMPERIAL       CLEAR     54  35  48 N6        30.35R
OGALLALA       CLEAR     51  31  47 N6        30.35R
NORTH PLATTE   CLEAR     49  30  48 CALM      30.33R
MCCOOK         CLEAR     52  27  38 N9        30.33R
LEXINGTON      CLEAR     52  31  45 N7        30.32R
STAPLETON        N/A     51  27  39 CALM        N/A
GOTHENBURG       N/A     60  23  24 N3          N/A
CALLAWAY         N/A     54  28  37 N5          N/A
$$

...OBSERVATIONS IN CENTRAL LINCOLN COUNTY AREA...

CITY           SKY/WX    TMP DP  RH WIND       PRES   REMARKS
N.P. AIRPORT   CLEAR     49  30  48 CALM      30.33R
N.P. DOWNTOWN    N/A     55  29  37 CALM        N/A
N.P. SOUTHEAST   N/A     55  28  35 CALM        N/A
N.P. HILLCREST   N/A     55  27  34 NE8         N/A
$$

...SOME OBSERVATIONS FROM AROUND THE REGION...

CITY           SKY/WX    TMP DP  RH WIND       PRES   REMARKS
DENVER         CLEAR     58  28  32 E6        30.41R
LARAMIE        CLEAR     46  33  60 NW7       30.48R
CHEYENNE       CLEAR     54  31  41 NW5       30.43R
SCOTTSBLUFF    CLEAR     51  39  63 MISG      30.36R
RAPID CITY     CLEAR     49  34  56 NW10      30.31R
BISMARCK       CLEAR     55  35  47 NW12      30.16R
PIERRE         CLEAR     53  32  44 W7        30.22R
SIOUX FALLS    PTCLDY    54  40  59 W7        30.16R
OMAHA          CLEAR     58  44  60 NW10      30.19R
GRAND ISLAND   CLEAR     51  38  60 NW7       30.27R
KANSAS CITY    CLOUDY    62  55  77 W3        30.18R
WICHITA        CLOUDY    64  58  80 CALM      30.22R
OKLAHOMA CITY  LGT RAIN  64  55  72 N12       30.19R
DALLAS         CLOUDY    77  72  84 N10       30.06R
AMARILLO       MOCLDY    59  44  57 E6        30.32R
DODGE CITY     CLEAR     56  39  53 N8        30.29R
HAYS           CLEAR     55  36  47 N8        30.28R
GOODLAND       CLEAR     51  35  54 N6        30.36R
$$




USA.gov is the U.S. government's official web portal to all federal, state and local government web resources and services.